カタログに戻る

KUIPER-00615

運用中通信LEO
NORAD 69774·PAYLOAD·🇺🇸 United States

打ち上げ Jul 2, 2026 から Cape Canaveral Space Force Station

Loading…

次のパス (今後24時間)

TLE

最新Source: CelesTrak SupGP

元期: Sep 14, 2026, 22:02 UTC

1 69774C 26151M   26257.91849537  .00032272  00000+0  42279-2 0  2574
2 69774  51.9001 258.8121 0001301 125.5961  75.1690 14.79864855    18

AllMySatでKUIPER-00615をリアルタイム追跡

Download on the App Store